Flag for Sweden Weather past 2 weeks in Halmstad, Sweden

Now
63 °F

Scattered clouds.


Feels Like: 63 °F
Forecast: 49 / 69 °F
Wind: 10 mph from West

Location: Halmstad Swedish Air Force Base

Current Time: Aug 28, 2014 at 5:15:01 PM

Latest Report: Aug 28, 2014 at 4:50 PM


Visibility: N/A

Pressure: 30.01 "Hg

Humidity: 73%

Dew point: 54 °F

Location of HalmstadLocation

Historic Weather in Halmstad — Graph

°F

Halmstad temperature yesterday

Maximum temperature yesterday: 66 °F (at 12:20 PM)
Minimum temperature yesterday: 48 °F (at 7:20 AM)
Average temperature yesterday: 57 °F

Past Weeks' High & Low Weather Summary

 TemperatureHumidityPressure
High68 °F (Aug 13, 4:50 PM)100% (Aug 26, 6:50 AM)30.01 "Hg (Aug 26, 6:50 AM)
Low46 °F (Aug 26, 6:20 AM)6% (Aug 21, 6:50 AM)29.30 "Hg (Aug 18, 1:50 PM)
Average58 °F72%29.68 "Hg
* Reported Aug 13 4:20 PM — Aug 28 4:20 PM, Halmstad, Weather by CustomWeather, © 2014

Note: Actual official high and low records may vary slightly from our data, if they occured in-between our weather recording intervals... More about our weather records

Advertising

Halmstad weather history for previous 24 hours

 ConditionsComfort  
Time TempWeatherWind HumidityBarometerVisibility
4:20 PM
Aug 28
61 °FScattered clouds.13 mph77%30.01 "HgN/A
3:50 PM63 °FPassing clouds.12 mph73%30.01 "HgN/A
3:20 PM63 °FScattered clouds.10 mph77%29.98 "HgN/A
2:50 PM63 °FPassing clouds.13 mph77%29.98 "HgN/A
2:20 PM63 °FPassing clouds.13 mph77%29.98 "HgN/A
1:20 PM63 °FScattered clouds.12 mph77%29.98 "HgN/A
12:50 PM63 °FPassing clouds.10 mph77%29.98 "HgN/A
12:20 PM63 °FScattered clouds.9 mph77%29.98 "HgN/A
11:50 AM63 °FBroken clouds.10 mph77%29.98 "HgN/A
11:20 AM63 °FBroken clouds.12 mph77%29.98 "HgN/A
10:50 AM61 °FScattered clouds.10 mph72%29.98 "HgN/A
10:20 AM61 °FBroken clouds.9 mph72%29.98 "HgN/A
9:50 AM61 °FBroken clouds.10 mph83%29.98 "HgN/A
9:20 AM59 °FBroken clouds.10 mph88%29.98 "HgN/A
8:50 AM59 °FPartly sunny.7 mph88%29.98 "HgN/A
8:20 AM59 °FBroken clouds.5 mph88%29.98 "HgN/A
7:50 AM59 °FBroken clouds.6 mph88%29.98 "HgN/A
7:20 AM57 °FBroken clouds.2 mph94%29.98 "HgN/A
6:50 AM57 °FPartly cloudy.2 mph94%29.95 "HgN/A
6:20 AM57 °FPassing clouds.3 mph94%29.95 "HgN/A
5:50 AM55 °FPassing clouds.2 mphN/A29.95 "HgN/A
5:20 AM57 °FPassing clouds.1 mphN/A29.95 "HgN/A
4:50 AM55 °FOvercast.1 mphN/A29.95 "HgN/A
4:20 AM52 °FPassing clouds.2 mphN/A29.95 "HgN/A
3:50 AM54 °FPassing clouds.No windN/A29.95 "HgN/A
3:20 AM54 °FPassing clouds.2 mphN/A29.95 "HgN/A
2:50 AM54 °FPassing clouds.No windN/A29.95 "Hg3 mi
2:20 AM54 °FPassing clouds.No windN/A29.95 "HgN/A
1:50 AM52 °FPassing clouds.No windN/A29.95 "HgN/A
1:20 AM52 °FCool.2 mphN/A29.95 "HgN/A
12:50 AM52 °FCool.1 mphN/A29.95 "HgN/A
12:20 AM52 °FCool.2 mphN/A29.95 "HgN/A
11:50 PM
Aug 27
54 °FCool.3 mphN/A29.95 "HgN/A
11:20 PM52 °FCool.6 mphN/A29.95 "HgN/A
10:50 PM52 °FCool.7 mphN/A29.95 "HgN/A
10:20 PM54 °FCool.7 mphN/A29.95 "HgN/A
9:50 PM54 °FClear.7 mph94%29.95 "Hg10 mi
9:20 PM54 °FClear.9 mph94%29.92 "Hg10 mi
8:50 PM55 °FSunny.9 mph88%29.92 "Hg10 mi
7:50 PM61 °FSunny.10 mph72%29.92 "Hg10 mi
7:20 PM61 °FSunny.13 mph72%29.92 "Hg10 mi
6:50 PM63 °FSunny.12 mph68%29.92 "Hg10 mi
6:20 PM63 °FSunny.17 mph68%29.89 "Hg10 mi
Weather by CustomWeather, © 2014

See weather overviewHow to use our weather pages